joomla templates top joomla templates template joomla

King Air Abend

Wetterbeurteilung mit Hilfe Webcam und ATIS

 

Webcam 1Webcam 2

(Zum vergrößern auf das Bild klicken)

Wetteranzeige

Aktuelles Platzwetter Stand 19.10.2019 06:59Z

AvgMin / Max
Windrichtung140 Deg130 / 180 Deg
Windgeschwindigkeit4 kt3 / 7 kt
Sichtweite>10000 m
Temperatur11 °C
Taupunkt9 °C
Feuchte88 %
QNH1011.8 hPa
QFE958.5 hPa
WolkenOVC008

Aerodrome Terminal Information Service (ATIS) Coburg

METAR
EDQC 190650Z AUTO 16005KT 9999 OVC009 11/09 Q1011=

Wetterverlauf

Notam

C3571/19 - AD PPR. 22 OCT 00:00 2019 UNTIL 09 DEC 23:59 2019. CREATED: 11 OCT 08:29 2019

C0503/18 - COBURG INFO CHANGED TO 128.680 (8.33 KHZ). 28 FEB 12:22 2018 UNTIL PERM. CREATED:
28 FEB 12:22 2018

Windvorhersage

Verkehrslandeplatz Coburg Brandensteinsebene
Tower
Zur Brandensteinsebene
96450 Coburg

 

Telefon +49 (0) 95 61 / 9 20 98
Telefax +49 (0) 95 61 / 9 20 06
EMail tower@vlp-coburg.de